www.pogodaiklimat.ru

АРХИВ ПОГОДЫ в Кернее

Время (UTC), дата Ветер
(напр.,м/с)
 
Видим.   Явления Облачность Т
(С)
Тd
(С)
f
(%)
Тe
(С)
Тes
(С)
Комфортность

P
(гПа)

Po
(гПа)
Тmin
(С)
Tmax
(С)
R
(мм)
SD
(см)
14:57 18.07 Ю  16 км    10/10 180 м  +22.0  +21.0  94  +28  +28  душно  1015.1  940.5         
15:33 18.07 ЮВ  16 км    8/8 300 м  +24.0  +21.0  83  +30  +32  очень
душно 
  940.5         
15:51 18.07 ЮВ  16 км    5/5 300 м  +24.0  +21.0  83  +30  +33  очень
душно 
  940.5         
15:57 18.07 Ю  16 км    5/5 360 м  +25.0  +20.6  77  +31  +34  очень
душно 
1014.9  940.8         
16:07 18.07 Ю  16 км    8/8 420 м  +25.0  +21.0  78  +31  +33  очень
душно 
  940.8         
16:22 18.07 Ю  16 км    10/10 480 м  +26.0  +21.0  74  +33  +33  очень
душно 
  940.5         
16:57 18.07 Ю  16 км    8/8 600 м  +26.1  +20.0  69  +32  +34  очень
душно 
1015.0  940.8         
17:57 18.07 В  16 км    5/5 720 м  +26.1  +20.0  69  +32  +40  очень
душно 
1014.6  940.5         
18:57 18.07 ЮВ  16 км    5/5 780 м  +27.2  +20.0  65  +33  +41  очень
душно 
1014.3  940.2         
19:57 18.07 В  16 км    2/2 840 м  +27.8  +20.0  63  +34  +47  очень
душно 
1013.8  939.6         
20:57 18.07 Ю  16 км    2/2 1050 м  +28.3  +20.0  61  +35  +41  очень
душно 
1013.1  938.9         
21:57 18.07 ЮВ  16 км    2/2 1440 м  +28.3  +20.6  63  +35  +39  очень
душно 
1012.2  938.3         
22:57 18.07 Ю  16 км    2/2 1050 м  +28.3  +21.1  65  +36  +38  очень
душно 
1011.4  937.7         
23:57 18.07 ЮВ  16 км    10/10 1230 м  +27.2  +21.7  72  +35  +35  очень
душно 
1010.9  937.1         
00:57 19.07 ЮВ  16 км    10/10 1080 м  +26.1  +21.1  74  +33  +33  очень
душно 
  936.7         
01:10 19.07 ЮВ  16 км  гроза  8/8 1140 м  +26.0  +21.0  74  +33  +33  очень
душно 
  937.1         
01:19 19.07 Ю  14 км  гроза  5/5 990 м  +26.0  +21.0  74  +33  +33  очень
душно 
  936.1         
01:44 19.07 СЗ  13
{17} 
10 км  гроза, мгла  8/5 870 м
[средняя] 
+24.0  +20.0  78  +29  +29  душно             
01:48 19.07 С  14
{18} 
6 км  гроза с сильным дождем  8/8 540 м  +23.0  +20.0  83  +30  +30  очень
душно 
           
01:53 19.07 СВ  18
{22} 
3 км  гроза с сильным дождем, дымка  8/8 210 м
[средняя] 
+22.0  +20.0  88  +28  +28  душно    937.7         
01:57 19.07 СВ  13
{22} 
3 км  гроза с сильным дождем, дымка  8/8 270 м  +19.4  +17.2  87  +20  +20    1012.6           
02:02 19.07 В  10
{21} 
5 км  гроза с сильным дождем, дымка  10/8 210 м
[средняя] 
+18.0  +17.0  94  +17  +17               
02:17 19.07 ЮВ  16 км  гроза со слабым дождем  8/8 150 м  +20.0  +18.0  88  +22  +22  комфорт             
02:53 19.07 СВ  6
{18} 
4 км  гроза с сильным дождем, дымка  8/8 240 м  +19.0  +18.0  94  +20  +20               
02:57 19.07 нст  3
{16} 
4 км  гроза с сильным дождем, дымка  8/8 240 м  +19.4  +18.3  93  +22  +22  комфорт  1013.7           
03:07 19.07 В  11
{13} 
10 км  гроза с дождем, дымка  10/8 240 м
[средняя] 
+19.0  +18.0  94  +19  +19      938.3         
03:18 19.07 Ю  16 км  гроза со слабым дождем  8/8 240 м  +20.0  +19.0  94  +23  +23  комфорт    938.6         
03:28 19.07 Ю  8
{10} 
16 км  гроза, слабый дождь  8/8 390 м  +20.0  +19.0  94  +23  +23  комфорт    938.3         
03:57 19.07 ЮЗ  16 км    ясно  +19.4  +17.2  87  +21  +21  комфорт  1011.9  937.7         
04:57 19.07 ЮЗ  16 км    ясно  +20.0  +18.0  88  +23  +23  комфорт  1011.4  937.4  +18.3    30.0   
05:57 19.07 ЮЗ  16 км    ясно  +20.0  +17.8  87  +23  +23  комфорт  1010.9  937.1         
06:57 19.07 ЮЗ  16 км    ясно  +21.1  +18.3  84  +25  +25  комфорт  1010.3  936.7         
07:57 19.07 ЮЗ  16 км    ясно  +22.2  +19.4  84  +28  +28  душно  1009.8  936.1         
08:57 19.07 ЮЗ  16 км    ясно  +22.2  +20.0  87  +28  +28  душно  1009.8  936.1         
09:57 19.07 С  16 км    ясно  +21.1  +20.0  93  +26  +26  душно  1010.4  936.7         
10:57 19.07 Ю  11 км    ясно  +20.0  +19.0  94  +24  +24  комфорт  1010.4  936.7  +20.0       
11:57 19.07 СЗ  16 км    ясно  +22.2  +20.6  91  +29  +29  очень
душно 
1010.8  937.1         
12:57 19.07 СЗ  16 км    ясно  +23.9  +21.7  88  +31  +32  очень
душно 
1011.2  937.4         
13:57 19.07 С  16 км    ясно  +26.1  +20.0  69  +32  +33  очень
душно 
1011.7  937.7         
14:57 19.07 С  16 км    ясно  +27.2  +20.0  65  +33  +36  очень
душно 
1011.5  937.7         
15:57 19.07 С  16 км    ясно  +28.3  +18.3  55  +33  +38  очень
душно 
1011.4  937.7         
16:57 19.07 С  16 км    ясно  +28.3  +18.9  57  +34  +45  очень
душно 
1011.0  937.4         
17:57 19.07 З  16 км    ясно  +29.4  +16.7  46  +33  +49  душно  1010.8  937.1         
18:57 19.07 штиль  16 км    ясно  +30.6  +17.8  46  +35  +61  опасность
солнечного
удара 
1010.4  936.7         
19:57 19.07 В  13 км    ясно  +30.0  +18.9  51  +35  +54  опасность
солнечного
удара 
1010.4  936.7         
20:57 19.07 ЮВ  16 км    ясно  +30.0  +19.4  53  +36  +48  очень
душно 
1010.2  936.7         
21:57 19.07 В  16 км    ясно  +30.0  +20.0  55  +36  +46  очень
душно 
1010.1  936.4         
22:57 19.07 ЮВ  16 км    ясно  +30.0  +21.1  59  +38  +42  очень
душно 
1009.9  936.4         

 

Местоположение метеостанции Kearney Municipal Airport: широта 40.7333 долгота -99.0000 высота над уровнем моря 650 м.

В архиве по умолчанию представлена погода в Кернее за последние 1-2 суток. Обновление информации о фактической погоде в базе происходит ежечасно! Архивные данные за месяц целиком и за предыдущие месяцы Вы можете получить, выбрав интересующий диапазон дат из раскрывающегося списка и нажав кнопку "Ввод!".

Внимание! Архив погоды МЕТАР в базе сайта в настоящее время начинается c 1 января 2013 г. Нет смысла пытаться выбрать более раннюю дату.

Внимание! Время в таблицах - всемирное. Для получения местного времени необходимо прибавить поправку, которая в Кернее равна -6 ч.

Ветер - указаны скорость ветра в м/с и направление, откуда дует ветер: С - северный, СВ - северо-восточный, В - восточный, ЮВ - юго-восточный, Ю - южный, ЮЗ - юго-западный, З - западный, СЗ - северо-западный.
Видимость - горизонтальная дальность видимости в метрах или километрах. При видимости от 1 до 10 км при отсутствии осадков обычно наблюдается дымка, при ухудшении видимости до 1 км и менее - туман. В сухую погоду видимость может ухудшаться дымом, пылью или мглою.
Атмосферные явления - указаны явления, наблюдавшиеся в указанный момент времени.
Облачность - указаны через наклонную черту верхняя и нижняя облачность в баллах и высота нижней границы облаков в метрах. Внимание: облачность, как и прочие метеорологические величины в США измеряются автоматическими метеостанциями. Указанные значения в баллах носят условный характер и показывают процент времени, в течение которого, в среднем, лазерный луч высотомера отражался от облаков обратно.
T - Температура воздуха - температура, измеренная на высоте 2 м над землей.
Td - Температура точки росы - температура, при понижении до которой содержащийся в воздухе водяной пар достигнет насыщения.
f - Относительная влажность воздуха - влажноcть воздуха, измеренная на высоте 2 м над землей.
Te - Эффективная температура - температура, которую ощущает одетый по сезону человек в тени. Характеристика душности погоды. При расчете учитывается влияние влажности воздуха и скорости ветра на теплоощущения человека.
Tes - Эффективная температура на солнце - температура, которую ощущает человек, с поправкой на солнечный нагрев. Характеристика знойности погоды. Зависит от высоты солнца над горизонтом, облачности и скорости ветра. Ночью, в пасмурную погоду, а также при ветре 12 м/с и более поправка равна нулю.
P - Атмосферное давление - приведенное к уровню моря атмосферное давление.
Po - Атмосферное давление - измеренное на уровне метеостанции атмосферное давление.
Tmin - Минимальная температура - минимум температуры воздуха на высоте 2 м над землей.
Tmax - Максимальная температура - максимум температуры воздуха на высоте 2 м над землей.
R - Количество осадков - Количество выпавших осадков за 3 или 6 часов, мм.
SD - Снежный покров - Высота снежного покрова, см.